Vertical_Velocity
1 1 2 -3 -0 -1 2 1 -0 -0 0 -2 -2 -1 -4 1 -0 -0 1 -0 -1 -1 -1 -1 -1 -1 -1 0 -1 -1 -0 -1 0 -0 -0 -0 -0 1 -1 0 2 2 2 0
-2 -1 -1 -2 -1 1 0 -0 0 -1 0 -2 -1 1 1 1 2 -4 -3 -1 0 1 -0 -0 -0 0 -0 -1 -1 0 0 -1 0 -2 -2 -3 -1 1 2 1 -0 -1 0 1
1 1 -2 -2 -2 -1 -1 -2 -2 -2 -2 -2 0 -0 1 2 -0 -2 -3 -2 -1 -0 0 0 1 -0 -2 -1 -1 -1 -1 -0 0 0 -1 -0 -0 0 -0 -1 -0 1 -0 1
-1 -2 -1 -2 -1 -1 -3 -3 -2 -2 -2 -3 2 -7 8 2 3 2 -0 -0 -1 -0 1 0 1 1 -1 -1 -1 -1 -1 -1 0 0 -1 1 2 -1 1 -0 -1 -1 1 1
4 0 -2 -3 -1 -3 -1 -2 -2 -2 -0 -3 6 -15 18 4 -1 -3 -3 -3 -1 -2 -2 -1 -1 -1 -2 -1 -0 -1 -3 -1 -1 -0 0 2 1 3 1 1 -0 0 -0 0
-1 -2 -3 -1 -1 -2 1 -1 -3 -2 -2 -6 5 -2 20 -1 -2 -0 -3 -3 -1 0 -1 -1 -1 -1 -2 -1 -0 -1 -1 -1 -1 1 2 1 0 -1 -0 0 0 -1 -2 -1
0 -2 -1 -1 -2 -3 1 -1 -2 -2 -3 -2 2 -3 8 -0 -3 -3 -3 0 1 -1 -1 -1 -1 -2 -2 -1 -1 -0 1 1 2 2 2 2 1 1 1 1 0 -0 -2 -1
1 -0 -0 0 0 1 1 -0 1 -8 -1 -3 2 -1 3 -4 -3 -3 -3 -1 -0 1 -1 -1 -1 -1 -1 -2 -1 -0 -0 0 1 -0 0 0 0 -0 -0 -0 0 1 1 1
1 1 -1 -0 -0 0 1 -0 -2 -5 -2 -4 -1 6 -1 -2 -3 -2 -1 -1 -0 -2 -2 -1 -0 -1 -2 -2 -1 -0 0 1 0 1 -1 -1 -1 0 0 1 1 1 0 1
1 1 0 0 -0 -1 -1 1 -1 1 -9 -7 -1 3 -1 1 2 -1 -1 -1 -2 -1 -0 1 1 -0 -1 -1 -0 -1 -1 0 0 -1 0 -0 0 -0 1 1 0 1 1 0
-2 -2 1 -1 1 -0 -0 1 -0 -2 -1 -7 -4 4 4 1 0 0 -2 -3 -2 -1 1 2 3 2 2 1 1 1 1 1 1 1 1 1 0 -0 -1 0 1 -0 -1 -2
-2 -2 -3 -3 -2 -2 -2 -1 -1 -3 -1 0 -0 4 4 1 -2 -2 -3 -4 -2 2 1 1 -0 -1 1 1 -0 -0 -0 0 0 0 -0 -0 -0 -1 -1 -0 -1 -2 -1 -1
-0 -1 -2 0 -1 -0 -0 -0 -0 -2 -0 6 -6 6 -3 2 -2 0 4 3 4 2 0 -0 1 -0 -2 -2 -0 -0 -1 -1 -2 -2 -3 -2 -2 -2 -1 -0 -0 -1 -2 -2
-2 0 -1 -2 -3 -1 -1 -1 1 0 4 -4 9 -1 11 -6 -5 -3 -2 -2 -1 -0 -2 -2 -2 -1 0 1 0 0 -1 -1 -1 -1 -1 -1 -2 -2 -2 -3 -2 -2 -2 -1
1 3 -0 -2 -3 -2 -2 1 -1 -1 3 -7 16 -10 3 -16 9 -1 -0 2 2 1 1 -0 1 1 -1 -0 -0 0 -0 -1 -1 -1 -1 -1 -1 -1 -1 -1 -0 0 0 -0
0 -2 -0 4 -3 -6 1 5 -5 -1 5 1 -5 13 -9 5 1 -1 -2 -1 -0 1 1 0 -0 -0 1 1 2 1 -1 -2 -1 -2 -2 -1 -1 -0 1 1 1 1 -0 -0
1 -2 -3 2 1 -0 1 2 -1 -1 -0 -0 -2 1 2 2 0 -0 0 1 2 -1 -0 -1 1 0 -1 -1 -2 -1 0 4 3 1 1 1 0 -2 -2 -2 -2 -3 -1 -2
1 -2 -3 -1 -2 -3 -2 -0 -1 -2 0 -2 -2 -4 -0 -1 -1 -1 2 -1 -2 -3 -2 -3 -3 -2 -2 -2 -1 1 -2 -1 -1 -3 1 -0 2 3 2 1 -0 -1 -2 -3
-0 -1 -7 -7 1 4 0 2 1 1 -4 5 3 1 -1 -4 -1 1 2 1 1 2 1 3 3 1 -2 -5 -2 -1 -1 -0 3 -6 2 -2 -3 -2 -3 -3 -2 -3 0 -1
1 -0 -1 0 -11 -5 5 4 0 -5 -15 11 1 1 1 -0 -4 0 -2 -1 -1 -1 1 1 -0 1 2 -1 -1 -1 -2 0 -6 -5 -1 -0 -4 -3 -1 -3 -1 -3 -5 -1
-0 -5 -5 -7 -17 -9 2 1 -3 1 -4 -2 2 -2 1 4 -1 5 1 3 -2 3 3 -1 0 1 1 0 3 5 2 1 -2 0 1 -2 -4 -3 -3 0 -1 -2 -4 -4
2 -3 2 -3 -6 -7 5 2 5 -4 -3 -3 1 1 -2 -0 -2 -7 -3 -1 1 1 1 -3 -2 -1 -3 -1 2 2 6 -2 1 -0 2 1 -0 -0 -2 -5 4 -3 -2 -1
-6 1 1 2 -4 2 -6 -0 -3 -3 -3 -5 -1 5 -2 4 4 1 1 1 -2 -4 0 -1 3 2 3 -4 0 -1 1 -8 -3 -5 -3 1 -1 0 -2 -3 -2 -4 -4 -6
5 2 -0 -3 9 -6 -5 -5 1 1 -1 -2 -4 -2 -0 4 2 1 2 2 1 4 1 -3 -3 -3 3 -6 -3 -6 0 -4 -7 -4 -2 1 -2 2 2 -6 -3 -4 -1 -5
8 -2 2 2 -2 -7 -3 1 1 -1 2 3 2 1 -1 -3 -2 -5 -2 -2 -2 -2 -1 -2 -1 1 2 1 4 4 -5 -6 -4 -5 1 2 -3 -0 -1 -1 -2 -4 1 -7
9 6 -6 -4 4 4 -0 1 -2 3 2 -2 1 3 -1 -7 -4 1 0 -3 1 -1 -0 -0 -1 -5 1 -4 0 2 -5 -1 -9 -7 -1 -4 -5 3 3 -1 0 4 -4 3
Height
5789 5797 5803 5808 5814 5818 5821 5824 5827 5829 5832 5833 5834 5835 5834 5836 5836 5835 5833 5831 5828 5825 5821 5817 5813 5809 5805 5800 5796 5793 5789 5786 5782 5780 5778 5777 5776 5775 5774 5772 5770 5768 5766 5764
5790 5797 5803 5808 5812 5816 5819 5821 5824 5827 5828 5830 5830 5831 5830 5829 5828 5827 5826 5823 5820 5817 5813 5809 5805 5801 5797 5793 5789 5786 5783 5779 5777 5776 5774 5774 5773 5771 5770 5768 5766 5763 5761 5759
5790 5798 5802 5807 5811 5815 5817 5819 5821 5823 5824 5825 5826 5826 5825 5824 5822 5821 5818 5816 5813 5809 5805 5801 5797 5793 5789 5786 5784 5781 5777 5773 5772 5771 5770 5769 5768 5767 5765 5763 5761 5759 5756 5753
5791 5797 5802 5806 5810 5813 5815 5817 5818 5819 5820 5820 5820 5819 5821 5818 5816 5813 5810 5808 5805 5801 5797 5793 5789 5785 5782 5780 5777 5775 5771 5768 5767 5766 5766 5765 5763 5761 5759 5756 5754 5752 5750 5747
5793 5796 5801 5805 5808 5810 5812 5813 5814 5815 5815 5814 5815 5812 5812 5810 5808 5805 5802 5799 5796 5792 5789 5785 5782 5779 5776 5773 5771 5769 5766 5764 5763 5762 5761 5759 5757 5755 5752 5750 5747 5744 5741 5739
5791 5796 5799 5802 5805 5807 5808 5809 5809 5810 5809 5808 5808 5806 5805 5802 5799 5795 5793 5790 5787 5784 5781 5778 5776 5773 5770 5767 5765 5763 5762 5760 5759 5757 5756 5753 5750 5748 5745 5742 5739 5736 5732 5729
5790 5794 5797 5799 5801 5803 5804 5804 5804 5804 5802 5802 5800 5798 5799 5793 5790 5787 5784 5781 5779 5776 5774 5771 5770 5767 5765 5762 5760 5758 5756 5755 5753 5751 5749 5746 5743 5740 5737 5734 5731 5727 5723 5720
5788 5792 5793 5795 5797 5798 5797 5798 5798 5795 5796 5795 5793 5791 5790 5786 5782 5780 5777 5774 5772 5770 5767 5766 5764 5762 5760 5757 5755 5753 5750 5748 5746 5743 5741 5738 5735 5732 5729 5725 5722 5719 5716 5713
5785 5788 5790 5791 5792 5793 5793 5793 5792 5790 5788 5786 5786 5786 5782 5778 5775 5771 5769 5768 5766 5764 5762 5760 5758 5756 5754 5751 5749 5746 5744 5741 5738 5735 5732 5729 5726 5722 5719 5716 5713 5710 5708 5706
5783 5784 5786 5786 5787 5788 5787 5787 5786 5783 5781 5779 5779 5777 5774 5771 5768 5766 5764 5763 5761 5759 5757 5754 5752 5749 5747 5744 5741 5738 5735 5732 5729 5726 5722 5718 5715 5712 5709 5707 5704 5702 5700 5698
5779 5781 5783 5782 5782 5781 5781 5780 5778 5776 5775 5772 5771 5771 5767 5764 5762 5759 5757 5756 5754 5752 5750 5747 5744 5741 5738 5734 5731 5728 5725 5722 5718 5714 5711 5708 5705 5702 5700 5698 5695 5693 5691 5689
5775 5776 5777 5777 5776 5775 5774 5772 5770 5768 5768 5765 5763 5766 5760 5756 5753 5750 5748 5747 5745 5744 5741 5737 5734 5730 5726 5723 5719 5717 5713 5710 5707 5703 5700 5697 5694 5692 5689 5687 5685 5682 5680 5678
5770 5770 5770 5770 5770 5768 5766 5764 5762 5760 5758 5758 5755 5755 5751 5746 5743 5740 5738 5737 5736 5733 5729 5726 5722 5717 5714 5711 5707 5704 5701 5698 5695 5692 5689 5686 5684 5681 5679 5676 5674 5671 5668 5666
5764 5764 5763 5763 5761 5761 5759 5757 5755 5753 5752 5749 5749 5748 5745 5735 5733 5731 5729 5726 5723 5720 5716 5713 5708 5705 5702 5699 5696 5693 5689 5686 5682 5679 5677 5674 5671 5668 5665 5663 5661 5658 5656 5653
5759 5758 5757 5755 5753 5753 5752 5750 5747 5745 5742 5737 5742 5733 5736 5726 5724 5719 5716 5712 5710 5707 5703 5699 5696 5692 5688 5685 5682 5679 5675 5672 5669 5665 5662 5659 5656 5653 5650 5648 5645 5643 5640 5638
5753 5752 5751 5749 5746 5745 5743 5742 5737 5734 5732 5727 5724 5724 5717 5718 5713 5709 5704 5701 5697 5693 5689 5686 5683 5679 5676 5672 5669 5665 5661 5658 5655 5651 5648 5645 5642 5639 5636 5633 5630 5627 5623 5620
5746 5744 5742 5741 5739 5735 5736 5734 5729 5726 5722 5718 5715 5711 5709 5705 5700 5697 5694 5690 5686 5682 5677 5673 5670 5666 5662 5658 5655 5651 5647 5643 5639 5635 5632 5629 5626 5623 5619 5615 5612 5608 5605 5601
5739 5736 5733 5731 5730 5726 5725 5724 5721 5717 5713 5708 5703 5699 5696 5692 5687 5684 5680 5676 5672 5668 5665 5660 5655 5651 5647 5643 5639 5635 5631 5627 5623 5619 5616 5612 5608 5603 5599 5596 5592 5588 5585 5581
5729 5726 5722 5719 5718 5715 5712 5709 5707 5704 5700 5694 5691 5686 5681 5677 5672 5668 5664 5659 5656 5652 5648 5644 5640 5636 5631 5627 5623 5619 5614 5610 5605 5600 5598 5593 5588 5583 5579 5574 5570 5565 5562 5558
5720 5716 5713 5709 5704 5701 5698 5695 5692 5687 5682 5679 5674 5669 5664 5659 5654 5651 5646 5642 5638 5634 5631 5626 5622 5617 5613 5609 5606 5601 5595 5591 5585 5582 5577 5571 5565 5560 5557 5552 5547 5543 5540 5537
5708 5705 5701 5696 5691 5688 5686 5682 5675 5671 5669 5660 5655 5650 5646 5642 5637 5634 5630 5625 5621 5617 5613 5608 5603 5597 5591 5587 5583 5580 5575 5568 5563 5559 5554 5549 5543 5538 5533 5529 5524 5521 5518 5515
5694 5690 5686 5681 5677 5672 5670 5666 5661 5654 5648 5643 5637 5630 5626 5621 5617 5614 5610 5605 5601 5597 5591 5587 5582 5577 5571 5566 5560 5555 5550 5544 5538 5534 5530 5525 5519 5515 5509 5504 5501 5497 5493 5490
5678 5674 5668 5665 5660 5653 5649 5644 5638 5633 5627 5622 5617 5612 5608 5604 5599 5594 5590 5585 5580 5575 5570 5565 5560 5555 5549 5543 5537 5532 5526 5521 5516 5512 5507 5502 5497 5492 5486 5481 5477 5472 5468 5464
5661 5655 5650 5644 5642 5635 5630 5625 5618 5612 5608 5604 5599 5594 5589 5584 5578 5573 5568 5563 5558 5553 5547 5542 5537 5532 5526 5519 5512 5506 5501 5496 5493 5488 5483 5477 5472 5469 5462 5457 5452 5448 5444 5439
5645 5639 5633 5626 5619 5613 5610 5604 5599 5594 5590 5585 5579 5573 5568 5562 5557 5549 5546 5541 5535 5530 5525 5519 5513 5507 5502 5496 5490 5483 5477 5470 5467 5463 5458 5453 5447 5443 5438 5433 5429 5424 5421 5414
5627 5620 5613 5608 5602 5594 5590 5586 5581 5576 5570 5565 5559 5552 5545 5539 5533 5527 5523 5519 5512 5508 5502 5494 5487 5481 5476 5470 5465 5459 5451 5442 5438 5436 5433 5427 5423 5420 5414 5409 5407 5403 5397 5392